Total_Precipitation_Accumulation
1.76 1.75 1.74 1.78 1.91 2.04 2.20 2.46 2.70 2.59 2.28 2.04 1.98 1.89 1.83 1.89 2.06 1.79 1.68 1.67 1.51 1.42 1.42 1.41 1.43 1.47 1.54 1.54 1.57 1.66 1.77 1.91 2.15 2.33 2.50 2.70 2.85 3.00
1.60 1.57 1.54 1.54 1.63 1.68 1.80 1.98 2.27 2.49 2.32 1.94 1.86 1.78 1.77 1.70 1.94 1.72 1.69 1.68 1.44 1.27 1.20 1.19 1.21 1.26 1.28 1.30 1.34 1.38 1.47 1.58 1.77 1.97 2.18 2.38 2.55 2.73
1.41 1.42 1.43 1.48 1.56 1.52 1.59 1.71 1.88 2.12 2.29 2.06 1.91 1.81 1.77 1.81 1.81 1.70 1.60 1.49 1.36 1.28 1.12 1.05 1.05 1.12 1.13 1.14 1.20 1.25 1.28 1.38 1.56 1.74 1.95 2.15 2.32 2.43
1.30 1.36 1.37 1.41 1.48 1.51 1.60 1.70 1.79 1.99 2.14 2.19 2.02 1.88 1.80 1.78 1.81 1.74 1.47 1.33 1.28 1.31 1.15 1.03 0.96 0.94 1.04 1.04 1.06 1.15 1.25 1.33 1.43 1.55 1.71 1.87 2.01 2.09
1.21 1.28 1.33 1.40 1.40 1.45 1.53 1.60 1.71 1.82 2.01 2.11 1.99 1.88 1.81 1.74 1.87 1.75 1.62 1.68 1.38 1.28 1.17 1.08 1.00 0.98 1.19 1.23 1.03 1.03 1.10 1.23 1.30 1.38 1.52 1.64 1.73 1.79
1.07 1.18 1.24 1.30 1.31 1.39 1.43 1.52 1.60 1.80 1.97 2.03 1.92 1.81 1.76 1.78 1.90 1.91 1.82 1.74 1.58 1.26 1.25 1.18 1.12 1.12 1.44 1.95 1.45 1.15 1.10 1.19 1.27 1.32 1.36 1.38 1.39 1.42
1.00 1.06 1.11 1.14 1.16 1.21 1.21 1.35 1.53 1.72 1.84 1.93 1.88 1.83 1.78 1.89 1.90 1.84 1.80 1.78 1.62 1.43 1.42 1.30 1.41 1.66 2.15 2.76 2.28 1.66 1.43 1.32 1.26 1.30 1.31 1.28 1.24 1.19
1.08 1.08 1.00 0.99 0.96 0.92 0.96 1.08 1.27 1.52 1.76 1.89 1.84 1.84 1.82 1.88 1.98 1.97 1.92 1.96 1.91 1.59 1.52 1.46 1.65 2.38 3.00 3.27 2.80 1.98 1.68 1.46 1.33 1.38 1.44 1.38 1.22 1.11
1.11 1.10 0.92 0.84 0.96 0.96 0.98 1.00 1.09 1.22 1.48 1.77 1.87 1.78 1.82 1.91 2.10 2.15 2.08 2.05 2.01 1.76 1.78 1.74 1.90 2.69 2.91 3.02 2.84 2.04 1.73 1.59 1.53 1.60 1.61 1.44 1.23 1.10
0.87 0.95 1.03 1.03 0.96 1.01 1.02 1.12 1.18 1.27 1.34 1.48 1.71 1.67 1.64 1.79 1.98 2.01 2.00 1.96 1.89 1.76 1.79 1.92 2.06 2.55 2.50 2.59 2.61 2.08 1.76 1.63 1.59 1.61 1.57 1.37 1.20 1.08
0.68 0.74 0.83 0.87 0.87 0.94 1.05 1.24 1.30 1.40 1.37 1.53 1.56 1.49 1.50 1.55 1.56 1.67 1.94 2.13 2.02 1.74 1.61 1.75 1.92 2.22 2.26 2.32 2.20 1.99 1.80 1.68 1.57 1.52 1.43 1.22 1.11 1.06
0.74 0.79 0.77 0.70 0.75 0.85 1.05 1.31 1.48 1.53 1.59 1.71 1.67 1.63 1.53 1.51 1.44 1.51 1.86 2.14 2.11 1.88 1.59 1.62 1.73 1.93 2.17 2.11 1.93 1.79 1.81 1.83 1.73 1.64 1.47 1.19 0.98 0.92
0.76 0.85 0.85 0.72 0.66 0.73 0.94 1.17 1.35 1.40 1.65 1.91 1.77 1.59 1.54 1.50 1.47 1.48 1.66 1.81 1.81 1.70 1.46 1.58 1.76 1.84 1.96 1.99 1.91 1.86 1.77 1.76 1.76 1.82 1.70 1.38 1.06 0.85
0.80 0.83 0.84 0.78 0.73 0.79 0.94 1.11 1.24 1.43 1.66 1.79 1.60 1.43 1.33 1.31 1.36 1.32 1.32 1.35 1.42 1.41 1.36 1.51 1.78 1.95 1.96 1.83 1.89 1.87 1.84 1.83 1.81 1.83 1.82 1.65 1.33 1.12
0.71 0.79 0.76 0.72 0.82 1.03 1.16 1.26 1.42 1.65 1.71 1.58 1.45 1.32 1.21 1.25 1.23 1.22 1.22 1.27 1.26 1.14 1.08 1.22 1.53 1.76 1.89 1.85 1.86 1.84 1.92 2.07 2.03 2.00 1.94 1.77 1.53 1.31
0.70 0.84 0.89 0.89 1.04 1.22 1.36 1.46 1.58 1.68 1.54 1.41 1.35 1.24 1.14 1.21 1.25 1.20 1.31 1.36 1.35 1.25 1.15 1.17 1.34 1.60 1.74 1.73 1.84 1.93 1.96 2.30 2.34 2.16 2.13 2.07 1.80 1.54
0.70 0.87 1.01 1.04 1.15 1.30 1.43 1.50 1.55 1.56 1.49 1.35 1.29 1.22 1.16 1.16 1.12 1.08 1.19 1.28 1.32 1.32 1.30 1.27 1.31 1.42 1.51 1.59 1.77 1.87 2.01 2.25 2.35 2.15 2.07 2.16 2.02 1.72
0.74 1.02 1.11 1.09 1.13 1.21 1.33 1.43 1.44 1.42 1.37 1.38 1.38 1.34 1.27 1.17 1.13 1.08 1.09 1.17 1.25 1.23 1.25 1.24 1.23 1.27 1.37 1.47 1.63 1.74 1.79 1.99 2.05 1.92 1.75 1.83 1.99 1.79
0.77 1.01 1.12 1.14 1.17 1.20 1.23 1.29 1.35 1.36 1.30 1.31 1.34 1.29 1.19 1.11 1.09 1.09 1.09 1.15 1.18 1.12 1.06 1.01 1.05 1.13 1.25 1.51 1.63 1.65 1.67 1.70 1.71 1.71 1.61 1.52 1.65 1.63
0.77 0.96 1.07 1.12 1.16 1.20 1.20 1.19 1.24 1.28 1.23 1.18 1.22 1.21 1.14 1.09 1.10 1.12 1.12 1.07 1.07 1.01 0.98 0.93 0.93 1.03 1.16 1.36 1.69 1.82 1.59 1.40 1.37 1.48 1.50 1.46 1.57 1.58
0.74 0.84 0.95 1.03 1.04 1.06 1.11 1.13 1.17 1.21 1.15 1.11 1.14 1.16 1.14 1.10 1.05 0.98 0.95 0.86 0.92 0.96 0.93 0.94 0.91 0.88 0.87 1.00 1.27 1.53 1.58 1.43 1.30 1.29 1.30 1.38 1.43 1.32
0.66 0.76 0.85 0.89 0.90 0.86 0.88 0.92 0.96 0.97 0.98 1.02 1.08 1.05 0.99 0.95 0.88 0.82 0.82 0.84 0.88 0.91 0.89 0.84 0.81 0.82 0.87 1.00 1.15 1.31 1.40 1.27 1.17 1.16 1.13 1.09 1.09 1.13
0.71 0.74 0.77 0.78 0.78 0.76 0.74 0.74 0.78 0.83 0.86 0.89 0.95 0.94 0.87 0.83 0.78 0.73 0.70 0.70 0.71 0.72 0.76 0.80 0.82 0.84 0.86 0.89 0.93 1.01 1.08 1.09 1.03 0.99 1.07 1.06 0.98 1.04